CAPE
1 1 0 1 1 2 2 2 2 2 2 2 2 0 0 0 0 0 0 0 0 0 0 0 0 0 0 0 0 0 0 0 0 0 0 0 0 0 0 0 0 0 0 0 15
1 1 1 1 2 3 4 3 1 2 4 1 2 2 2 0 0 0 0 0 0 0 0 0 0 0 0 0 0 0 0 0 0 0 0 0 0 0 0 0 0 0 0 0 0
0 0 0 0 1 3 3 4 3 3 2 1 2 1 0 0 0 0 0 0 0 0 0 0 0 0 0 0 0 0 0 0 0 0 0 0 0 0 0 0 0 0 0 0 0
1 1 1 1 1 3 3 2 4 3 1 0 1 3 0 0 0 0 0 0 0 0 0 0 0 0 0 0 0 0 0 0 0 0 0 0 0 0 0 0 0 0 0 0 0
1 1 1 3 2 3 1 2 2 2 2 1 1 2 0 0 0 0 0 0 0 0 0 0 0 0 0 0 0 0 0 0 0 0 0 0 0 0 0 0 0 0 0 0 0
0 1 2 4 3 1 0 0 1 0 0 1 1 1 0 0 0 0 0 0 0 0 0 0 0 0 0 0 0 0 0 0 0 0 0 0 0 0 0 0 0 0 0 0 0
0 1 3 1 2 0 0 0 0 0 0 0 2 0 0 0 0 0 0 0 0 0 0 0 0 0 0 0 0 0 0 0 0 0 0 0 0 0 0 0 0 0 0 0 0
0 1 2 4 1 0 0 0 0 0 0 0 1 0 0 0 0 0 0 0 0 0 0 0 0 0 0 0 0 0 0 0 0 0 0 0 0 0 0 0 0 0 0 0 0
0 0 3 2 0 0 0 0 0 0 0 0 0 0 0 0 0 0 0 0 0 0 0 0 0 0 0 0 0 0 0 0 0 0 0 0 0 0 0 0 0 0 0 0 0
0 0 2 2 1 0 0 0 0 0 0 0 0 0 0 0 0 0 0 0 0 0 0 0 0 0 0 0 0 0 0 0 0 0 0 0 0 0 0 0 0 0 0 0 0
0 0 1 2 0 0 0 0 0 0 0 0 0 0 0 0 0 0 0 0 0 0 0 0 0 0 0 0 0 0 0 0 0 0 0 0 0 0 0 0 0 0 0 0 0
0 0 2 1 0 0 0 0 0 0 0 0 0 0 0 0 0 0 0 0 0 0 0 0 0 0 0 0 0 0 0 0 0 0 0 0 0 0 0 0 0 0 0 0 0
0 0 2 1 0 0 0 0 0 0 0 0 0 0 0 0 0 0 0 0 0 0 0 0 0 0 0 0 0 0 1 0 0 0 0 0 0 0 0 0 0 0 0 0 0
0 0 3 0 0 0 0 0 0 0 0 0 0 0 0 0 0 0 0 0 0 0 0 0 0 0 0 0 0 0 0 0 0 0 0 0 0 0 0 0 0 0 0 0 0
0 0 2 1 0 0 0 0 0 0 0 0 0 0 0 0 0 0 0 0 0 0 7 3 0 0 0 5 0 0 0 5 1 7 6 0 0 0 0 0 0 0 0 0 0
0 0 0 0 0 0 0 0 0 0 0 0 0 0 0 0 0 0 0 0 3 0 0 0 2 2 0 0 0 0 0 0 18 17 8 0 0 0 0 0 0 0 0 0 0
0 0 0 0 0 0 0 0 0 0 0 0 0 0 0 0 0 0 0 0 0 0 0 0 0 0 0 0 0 0 2 0 8 13 4 0 0 0 0 0 0 0 0 0 0
0 0 0 0 0 0 0 0 0 0 0 0 0 0 0 0 0 0 0 0 2 0 1 0 0 1 0 0 0 0 0 0 0 0 0 0 0 0 0 0 0 0 0 0 0
0 0 0 0 0 0 0 0 0 0 2 0 0 0 0 0 2 8 0 0 4 0 0 0 0 0 0 7 0 2 2 0 18 14 0 0 0 0 0 0 0 0 0 0 0
0 0 0 0 0 0 0 0 0 0 0 0 0 2 2 0 2 1 0 0 4 1 3 1 0 1 2 4 5 4 0 0 0 2 4 0 0 0 0 0 0 0 0 0 0
0 0 0 0 0 0 0 0 0 0 0 0 0 2 0 3 1 3 0 0 13 4 3 1 0 0 0 0 0 0 2 1 0 5 0 0 0 0 0 0 0 0 0 0 0
0 0 0 0 0 0 0 0 0 0 0 0 0 0 2 14 0 3 0 3 8 3 0 0 1 0 0 0 0 0 0 0 0 0 4 0 0 0 0 0 0 0 0 0 0
0 0 0 0 0 0 0 0 0 0 0 0 0 0 0 8 0 1 8 8 8 7 0 0 0 0 0 0 0 0 0 1 1 2 0 5 0 480 142 4 30 9 0 0 8
0 0 0 0 0 0 0 0 0 0 0 0 0 0 0 2 0 0 1 1 3 3 5 7 0 1 0 0 0 0 0 3 3 0 0 9 70 323 526 345 247 75 140 304 307
0 0 0 0 0 0 0 0 0 1 0 0 0 1 1 2 1 0 2 1 1 4 2 1 0 0 1 0 1 0 1 6 1 0 0 3 151 100 460 689 732 797 991 786 383
0 0 0 0 0 0 0 0 0 0 0 0 0 0 2 2 1 0 1 1 0 0 0 0 0 1 1 0 4 1 0 0 0 0 14 0 12 0 244 900 1076 915 614 201 11
0 0 0 0 0 0 0 0 0 0 0 0 0 1 0 0 0 0 1 2 2 1 1 0 0 0 0 2 2 0 0 0 0 0 26 0 31 0 409 557 293 178 39 2 3
CIN
0 0 0 0 0 -0 0 0 0 0 0 0 -0 0 0 0 0 0 0 0 0 0 0 0 0 0 0 0 0 0 0 0 0 0 0 0 0 0 0 0 0 0 0 0 -258
0 0 0 0 0 -0 0 0 0 -0 0 -0 0 0 0 0 0 0 0 0 0 0 0 0 0 0 0 0 0 0 0 0 0 0 0 0 0 0 0 0 0 0 0 0 0
0 0 -0 -0 0 -0 -0 -0 0 -0 0 -0 -0 0 -0 0 0 0 0 0 0 0 0 0 0 0 0 0 0 0 0 0 0 0 0 0 0 0 0 0 0 0 0 0 0
-0 0 -0 0 0 -0 0 -0 0 0 0 -1 -1 -1 0 0 0 0 0 0 0 0 0 0 0 0 0 0 0 0 0 0 0 0 0 0 0 0 0 0 0 0 0 0 0
-0 -0 -0 -0 0 -0 0 0 0 0 0 0 -0 -1 0 0 0 0 0 0 0 0 0 0 0 0 0 0 0 0 0 0 0 0 0 0 0 0 0 0 0 0 0 0 0
0 -0 0 0 0 0 0 0 0 0 -0 0 0 -0 0 0 0 0 0 0 0 0 0 0 0 0 0 0 0 0 0 0 0 0 0 0 0 0 0 0 0 0 0 0 0
0 -0 -0 -0 0 0 0 0 0 0 0 0 0 0 0 0 0 0 0 0 0 0 0 0 0 0 0 0 0 0 0 0 0 0 0 0 0 0 0 0 0 0 0 0 0
0 0 0 0 0 0 0 0 0 0 0 0 0 0 0 0 0 0 0 0 0 0 0 0 0 0 0 0 0 0 0 0 0 0 0 0 0 0 0 0 0 0 0 0 0
0 0 -0 0 0 0 0 0 0 0 0 0 0 0 0 0 0 0 0 0 0 0 0 0 0 0 0 0 0 0 0 0 0 0 0 0 0 0 0 0 0 0 0 0 0
0 0 0 0 0 0 0 0 0 0 0 0 0 0 0 0 0 0 0 0 0 0 0 0 0 0 0 0 0 0 0 0 0 0 0 0 0 0 0 0 0 0 0 0 0
0 0 0 0 0 0 0 0 0 0 0 0 0 0 0 0 0 0 0 0 0 0 0 0 0 0 0 0 0 0 0 0 0 0 0 0 0 0 0 0 0 0 0 0 0
0 0 0 0 0 0 0 0 0 0 0 0 0 0 0 0 0 0 0 0 0 0 0 0 0 0 0 0 0 0 0 0 0 0 0 0 0 0 0 0 0 0 0 0 0
0 0 0 0 0 0 0 0 0 0 0 0 0 0 0 0 0 0 0 0 0 0 0 0 0 0 0 0 0 0 -2 0 0 0 0 0 0 0 0 0 0 0 0 0 0
0 0 0 0 0 0 0 0 0 0 0 0 0 0 0 0 0 0 0 0 0 0 0 0 0 0 0 0 0 0 0 0 -1 0 0 0 0 0 0 0 0 0 0 0 0
0 0 0 0 0 0 0 0 0 0 0 0 0 0 0 0 0 0 0 -0 0 0 -2 -1 -0 0 0 -36 -1 0 0 -5 -6 -2 -1 0 0 0 0 0 0 0 0 0 0
0 0 0 0 0 0 0 0 0 0 0 0 0 0 0 0 0 0 0 0 -10 0 0 -2 -4 -2 0 0 -4 0 0 0 -5 -6 -4 0 0 0 0 0 0 0 0 0 0
0 0 0 0 0 0 0 0 0 0 0 0 0 0 0 0 0 0 0 0 -1 0 0 0 0 0 0 0 0 0 -3 -1 -1 -15 -5 0 0 0 0 0 0 0 0 0 0
0 0 0 0 0 0 0 0 0 0 0 0 0 0 0 0 0 0 0 0 -3 -0 0 0 0 -5 -6 0 0 -2 0 0 0 -0 0 0 0 0 0 0 0 0 0 0 0
0 0 0 0 0 0 0 0 0 0 -2 0 0 0 0 0 -3 -3 0 0 0 -2 0 0 0 0 0 -11 0 -6 -7 0 -4 -10 0 0 0 0 0 0 0 0 0 0 0
0 0 0 0 0 0 0 0 0 0 0 0 0 -2 -1 0 0 -0 -0 0 -0 0 -5 0 0 -1 -2 -3 -13 -7 -1 -8 0 -5 -1 0 0 0 0 0 0 0 0 0 0
0 0 0 0 0 0 0 0 0 0 0 0 0 -0 0 0 0 0 -0 -0 -0 0 0 0 0 0 0 -0 0 -2 -1 -3 -4 -37 0 0 0 0 0 0 0 0 0 0 0
0 0 0 0 0 0 0 0 0 0 0 0 0 0 -0 -0 0 -1 -6 -0 -1 0 0 0 0 0 0 0 0 0 0 -0 0 -1 -35 0 0 0 0 0 0 0 0 0 0
0 0 0 0 0 0 0 0 0 0 0 0 0 0 0 -1 0 -4 -0 -3 0 0 0 0 0 0 0 0 0 0 -2 -2 -4 -51 -34 -18 0 -5 -119 -38 -203 -199 0 0 -84
0 0 0 0 0 0 0 0 0 0 0 0 0 0 -0 0 0 0 -0 0 -0 0 0 0 0 -0 0 0 0 0 0 -23 -15 -2 0 -7 -25 -7 -16 -83 -138 -288 -314 -299 -297
0 0 0 0 0 0 0 0 0 0 0 0 0 -1 0 0 0 0 -0 0 0 0 0 -0 0 0 0 0 0 0 0 -5 -12 0 -1 -18 -9 -37 -21 -20 -48 -95 -96 -143 -204
0 0 0 0 0 0 0 0 0 0 -0 0 0 0 0 0 0 -0 0 0 0 0 0 0 0 0 0 0 0 0 0 0 0 0 -13 0 -33 -0 -62 -5 -1 -43 -129 -255 -427
0 0 -0 0 0 0 0 0 0 0 0 0 0 0 0 0 -0 0 0 0 0 0 0 0 0 0 0 0 0 0 0 0 -9 0 -7 0 -36 0 -30 -8 -123 -191 -285 -135 0
Wind_Speed
39 39 39 38 39 39 39 38 37 37 36 36 36 36 37 38 40 36 37 27 24 28 29 29 28 26 22 28 28 27 41 51 47 41 36 25 32 34 33 35 30 24 29 23 18
40 40 40 40 39 39 38 37 36 34 34 34 34 35 36 38 40 34 26 21 20 29 29 33 33 27 30 31 32 35 45 47 38 39 37 34 37 33 32 31 32 31 31 27 23
42 42 41 41 40 38 37 34 33 32 32 33 33 34 35 36 35 27 22 22 24 33 30 30 31 32 37 33 36 40 53 46 41 40 37 39 40 36 38 47 38 35 34 32 28
43 43 42 41 39 37 34 33 32 32 33 32 31 31 32 31 38 24 28 27 29 33 31 28 28 33 39 42 37 47 46 49 38 44 35 39 37 39 38 46 32 32 35 34 32
44 42 42 41 38 36 33 31 32 32 32 30 27 27 28 30 28 23 27 28 29 30 29 31 31 31 40 40 44 48 48 39 43 47 42 42 47 42 44 36 37 37 38 38 34
43 42 41 41 38 34 31 30 31 31 29 26 21 21 25 32 21 22 23 26 24 27 27 27 32 32 35 37 41 39 44 49 49 43 39 50 53 46 35 30 36 37 37 38 33
43 41 40 40 35 32 31 31 33 29 25 20 16 20 21 21 21 22 23 18 17 17 29 27 29 31 30 38 35 39 51 48 46 42 46 39 55 62 48 45 44 40 38 39 37
43 41 41 39 33 32 32 30 32 27 20 16 15 18 17 16 21 22 21 24 20 14 12 20 23 32 36 34 38 41 41 51 48 42 39 35 69 39 39 39 44 43 40 40 37
44 43 41 37 34 34 31 28 28 21 16 16 17 18 14 20 25 26 18 24 22 19 12 16 18 28 32 40 46 41 52 49 46 39 38 40 53 42 37 33 38 39 39 37 35
43 42 41 37 33 31 28 27 20 20 17 19 16 19 16 23 28 26 19 18 17 18 16 11 17 26 33 39 57 50 49 44 43 33 44 47 53 43 30 33 39 36 35 33 32
42 42 40 34 32 28 28 24 27 21 21 15 17 16 15 17 26 25 19 15 18 16 14 15 21 31 32 39 46 47 48 47 41 38 37 45 50 49 44 39 36 37 40 35 31
42 41 39 31 29 25 23 26 23 21 24 17 8 9 8 13 29 23 17 16 13 7 2 6 14 22 22 33 42 46 49 51 45 41 41 43 46 44 43 44 43 37 35 33 28
43 40 38 29 25 22 23 22 21 22 22 19 14 11 15 26 19 12 19 14 14 11 6 5 7 7 7 27 35 44 49 47 47 43 46 46 53 48 41 40 41 42 38 33 31
43 41 35 28 23 24 24 21 23 20 22 17 17 16 19 28 14 23 18 15 14 10 9 2 2 9 8 26 32 43 43 43 42 43 52 35 56 45 44 43 42 42 41 40 32
42 41 33 22 23 24 23 23 21 18 27 19 17 17 20 21 13 18 18 17 6 3 9 8 4 3 8 10 24 38 34 41 42 43 43 47 47 47 40 45 46 43 44 41 34
41 41 31 22 20 21 22 21 20 23 22 20 19 26 22 12 14 13 18 15 18 19 11 2 3 4 5 7 12 22 27 36 40 41 52 48 49 47 44 45 47 45 43 42 34
41 38 27 20 25 22 22 22 28 24 24 19 24 39 14 13 14 17 17 16 13 16 23 17 9 5 7 8 12 10 24 34 49 51 54 42 49 53 42 41 43 44 41 44 36
42 30 24 22 22 20 21 27 29 23 22 17 13 23 20 21 16 17 16 15 10 13 14 18 15 10 8 11 9 12 17 30 47 49 57 39 52 57 50 45 38 33 38 40 38
41 29 25 29 25 22 25 31 26 25 23 24 25 26 22 21 21 22 17 10 10 11 9 9 6 10 5 11 14 10 20 27 30 34 43 45 48 45 48 42 38 35 35 39 42
39 29 27 33 23 24 28 28 23 21 26 21 24 25 12 11 20 19 16 13 11 9 11 9 1 13 8 8 12 10 10 22 29 38 43 43 57 50 43 47 46 37 36 38 38
35 31 29 32 24 30 32 27 23 20 29 22 10 14 10 11 20 14 9 10 10 11 10 7 7 7 10 11 14 14 10 6 23 27 35 42 55 43 41 37 42 40 32 35 36
34 36 30 31 32 31 32 27 21 20 27 16 0 20 4 10 11 10 11 10 12 8 6 8 9 5 5 7 10 14 16 9 24 29 29 34 47 33 40 33 35 37 31 29 30
38 29 28 30 38 37 30 24 20 23 21 4 2 7 23 9 7 9 7 13 8 6 10 14 10 7 10 13 9 10 16 13 18 23 29 32 36 26 29 32 31 35 30 25 25
34 38 31 31 29 34 33 26 25 21 2 14 4 8 6 10 5 8 9 7 9 6 17 10 1 5 5 10 8 11 17 29 36 27 36 30 30 25 26 29 27 28 25 24 24
34 33 30 35 32 32 26 22 25 23 12 9 2 4 23 8 16 10 11 15 9 11 13 10 5 4 9 10 4 14 21 26 40 36 33 31 27 24 25 24 23 24 23 24 24
34 33 29 28 28 30 26 24 24 14 14 12 4 21 19 11 12 22 21 19 12 20 17 11 10 8 2 10 15 15 24 30 33 36 25 28 26 22 24 22 19 21 24 24 24
29 26 27 28 30 29 26 24 20 15 13 10 16 21 19 12 20 22 15 9 1 11 13 12 10 11 10 14 15 11 27 30 33 36 28 34 25 18 19 22 20 21 22 23 21
Wind_Direction
353 352 354 354 352 348 345 344 342 340 339 338 337 334 331 327 321 319 307 305 302 299 297 292 284 280 273 262 262 262 258 256 257 258 259 269 261 259 260 255 256 258 255 267 283
356 358 357 354 353 350 348 347 346 346 345 344 341 338 334 330 324 319 322 312 309 307 298 286 277 273 267 261 258 254 255 257 261 261 263 261 260 260 257 252 252 254 255 267 277
357 356 357 355 354 353 352 352 351 350 348 345 344 342 339 336 329 327 331 317 309 307 303 291 278 268 262 262 255 256 256 258 262 261 263 260 258 261 257 250 251 253 254 266 271
355 356 357 356 355 355 355 354 354 351 348 348 347 347 346 344 323 338 334 323 312 305 296 289 280 267 262 256 259 258 259 258 265 259 263 258 260 259 257 249 257 256 259 264 265
357 358 358 357 356 356 356 355 354 351 349 349 352 356 355 346 343 352 343 334 324 311 298 284 275 271 263 262 257 257 258 263 260 259 260 259 254 258 257 258 256 257 256 260 262
360 0 0 358 357 358 357 355 355 353 353 356 3 8 1 348 11 7 358 348 341 324 304 288 275 271 270 265 258 261 260 260 259 260 260 254 253 256 259 259 255 254 253 256 258
1 1 0 359 360 359 357 355 355 355 357 6 18 14 3 4 9 5 357 357 352 346 315 300 278 267 269 264 265 264 259 259 256 258 256 260 253 246 253 256 253 251 252 255 257
2 2 0 360 0 359 356 356 356 359 10 24 29 17 3 16 8 360 358 349 346 338 335 324 297 269 262 267 266 262 261 252 253 253 256 247 241 255 255 252 249 249 250 254 257
2 1 0 0 0 357 357 356 358 7 26 29 15 10 5 3 359 354 359 350 346 342 335 337 313 276 263 257 257 256 251 252 255 252 250 243 249 255 255 252 249 246 248 253 254
3 1 360 360 360 358 359 359 13 24 24 12 15 4 360 353 356 354 358 355 359 350 341 343 318 284 264 253 247 249 250 252 251 256 246 247 248 250 257 251 247 243 245 251 251
3 1 359 360 360 2 6 13 7 5 357 353 348 347 337 351 353 354 354 5 354 356 344 334 308 282 272 259 253 251 252 251 252 253 258 248 250 249 248 251 247 241 241 245 248
1 0 359 1 3 6 16 12 11 3 350 348 324 340 348 3 349 355 7 5 12 342 328 326 248 298 286 268 253 248 247 248 254 254 256 252 252 250 244 244 241 239 239 240 243
1 1 1 3 5 17 11 13 14 8 357 3 15 18 15 359 355 4 1 9 357 354 339 283 322 352 260 274 258 247 244 245 249 255 254 255 251 245 244 243 239 236 237 239 238
1 1 2 6 18 14 11 17 9 13 4 18 23 24 12 358 17 359 7 6 1 1 13 298 281 208 277 277 263 253 246 246 248 248 243 248 243 243 240 239 236 233 232 234 235
1 1 3 15 15 13 14 9 15 25 2 17 21 19 353 8 344 16 11 7 349 239 11 352 9 88 196 261 267 256 252 244 244 246 246 242 244 240 237 233 232 230 229 231 233
2 2 7 21 19 14 12 15 20 10 4 11 14 326 5 348 20 20 14 17 358 344 9 262 92 132 139 153 187 266 257 245 242 243 241 237 237 238 233 230 230 229 229 228 229
2 4 16 24 11 11 11 16 7 9 7 12 347 348 315 14 16 21 16 19 29 18 355 18 33 78 142 119 133 256 251 241 233 234 235 236 237 234 233 231 233 230 230 227 228
2 10 23 22 9 14 20 12 6 11 7 6 336 293 16 24 24 22 18 25 49 33 23 15 30 70 97 166 119 150 244 243 233 234 233 238 234 231 230 231 235 234 230 226 227
4 16 22 16 17 24 18 9 9 11 9 4 298 7 20 19 19 17 21 39 68 58 80 65 87 38 107 146 154 134 257 250 248 241 235 234 237 238 233 233 231 234 227 223 225
8 18 21 12 25 24 16 10 12 15 6 10 4 6 354 7 19 16 31 53 63 72 60 69 71 34 68 145 163 144 142 256 246 235 233 230 228 226 225 226 226 231 226 222 224
16 18 19 15 28 21 13 13 11 16 5 11 12 287 284 13 13 14 46 39 53 64 56 42 80 72 54 103 174 161 156 287 252 248 233 227 226 227 226 227 223 226 228 223 221
17 13 18 20 20 19 13 10 16 19 7 24 145 278 339 18 346 16 30 41 30 31 38 43 40 40 113 94 43 167 169 163 251 239 236 234 224 231 226 229 225 224 227 223 218
12 17 23 27 14 13 15 19 25 18 21 83 269 30 1 295 312 24 22 28 18 27 45 36 47 41 45 37 97 141 164 160 258 239 231 229 222 231 223 224 228 224 224 215 208
15 11 18 25 26 17 15 21 22 24 44 46 290 274 6 310 342 7 309 14 25 303 258 239 138 169 161 41 71 137 166 190 207 233 226 232 224 223 220 221 225 219 214 203 199
19 16 19 9 16 15 20 28 22 29 53 38 37 301 299 334 304 29 300 289 341 27 41 50 91 131 198 198 126 169 177 166 202 207 220 224 222 222 221 222 217 207 196 191 191
18 16 17 15 15 17 26 28 25 29 36 33 1 298 297 300 293 291 288 285 26 22 23 47 38 59 140 180 169 157 177 185 221 214 219 223 222 228 222 213 200 193 184 185 188
22 22 20 17 17 19 23 24 18 14 30 26 284 294 300 315 299 284 270 265 20 20 58 57 93 64 68 50 110 138 179 171 209 205 212 213 221 223 210 202 194 186 184 185 184